Probability
0 0 0 0 0 0 0 0 0 0 0 0 0 0 0 0 0 0 0 0 0 0 0 0 0 0 0 0 0 0 0 0 0 0 0 0 0 0
0 0 0 0 0 0 0 0 0 0 0 0 0 0 0 0 0 0 0 0 0 0 0 0 0 0 0 0 0 0 0 0 0 0 0 0 0 0
0 0 0 0 0 0 0 0 0 0 0 0 0 0 0 0 0 0 0 0 0 0 0 0 0 0 0 0 0 0 0 0 0 0 0 0 0 0
0 0 0 0 0 0 0 0 0 0 0 0 0 0 0 0 0 0 0 0 0 0 0 0 0 0 0 0 0 0 0 0 0 0 0 0 0 0
0 0 0 0 0 0 0 0 0 0 0 0 0 0 0 0 0 0 0 0 0 0 0 0 0 0 0 0 0 0 0 0 0 0 0 0 0 0
0 0 0 0 0 0 0 0 0 0 0 0 0 0 0 0 0 0 0 0 0 0 0 0 0 0 0 0 0 0 0 0 0 0 0 0 0 0
0 0 0 0 0 0 0 0 0 0 0 0 0 0 0 0 0 0 0 0 0 0 0 0 0 0 0 0 0 0 0 0 0 0 0 0 0 0
0 0 0 0 0 0 0 0 0 0 0 0 0 0 0 0 0 0 0 0 0 0 0 0 0 0 0 0 0 0 0 0 0 0 0 0 0 0
0 0 0 0 0 0 0 0 0 0 0 0 0 0 0 0 0 0 0 0 0 0 0 0 0 0 0 0 0 0 0 0 0 0 0 0 0 0
0 0 0 0 0 0 0 0 0 0 0 0 0 0 0 0 0 0 0 0 0 0 0 0 0 0 0 0 0 0 0 0 0 0 0 0 0 0
0 0 0 0 0 0 0 0 0 0 0 0 0 0 0 0 0 0 0 0 0 0 0 0 0 0 0 0 0 0 0 0 0 0 0 0 0 0
0 0 0 0 0 0 0 0 0 0 0 0 0 0 0 0 0 0 0 0 0 0 0 0 0 0 0 0 0 0 0 0 0 0 0 0 0 0
0 0 0 0 0 0 0 0 0 0 0 0 0 0 0 0 0 0 0 0 0 0 0 0 0 0 0 0 0 0 0 0 0 0 0 0 0 0
0 0 0 0 0 0 0 0 0 0 0 0 0 0 0 0 0 0 0 0 0 0 0 0 0 0 0 0 0 0 0 0 0 0 0 0 0 0
0 0 0 0 0 0 0 0 0 0 0 0 0 0 0 0 0 0 0 0 0 0 0 0 0 0 0 0 0 0 0 0 0 0 0 0 0 0
0 0 0 0 0 0 0 0 0 0 0 0 0 0 0 0 0 0 0 0 0 0 0 0 0 0 0 0 0 0 0 0 0 0 0 0 0 0
0 0 0 0 0 0 0 0 0 0 0 0 0 0 0 0 0 0 0 0 0 0 0 0 0 0 0 0 0 0 0 0 0 0 0 0 0 0
0 0 0 0 0 0 0 0 0 0 0 0 0 0 0 0 0 0 0 0 0 0 0 0 0 0 0 0 0 0 0 0 0 0 0 0 0 0
0 0 0 0 0 0 0 0 0 0 0 0 0 0 0 0 0 0 0 0 0 0 0 0 0 0 0 0 0 0 0 0 0 0 0 0 0 0
0 0 0 0 0 0 0 0 0 0 0 0 0 0 0 0 0 0 0 0 0 0 0 0 0 0 0 0 0 0 0 0 0 0 0 0 0 0
0 0 0 0 0 0 0 0 0 0 0 0 0 0 0 0 0 0 0 0 0 0 0 0 0 0 0 0 0 0 0 0 0 0 0 0 0 0
0 0 0 0 0 0 0 0 0 0 0 0 0 0 0 0 0 0 0 0 0 0 0 0 0 0 0 0 0 0 0 0 0 0 0 0 0 0
0 0 0 0 0 0 0 0 0 0 0 0 0 0 0 0 0 0 0 0 0 0 0 0 0 0 0 0 0 0 0 0 0 0 0 0 0 0
Wind_Speed
2 1 1 1 1 1 1 1 1 3 4 3 3 3 4 4 8 6 6 13 15 16 16 16 16 16 16 16 16 17 17 16 16 16 16 16 16 14
1 1 1 1 1 1 1 1 2 2 4 3 4 5 6 6 10 7 6 14 14 15 16 16 16 16 16 16 16 16 16 17 17 17 16 16 15 13
1 1 1 1 1 1 1 1 1 1 4 5 4 4 5 6 7 6 6 5 7 14 15 15 16 15 16 16 16 16 17 17 17 17 16 15 15 13
2 1 1 1 1 1 1 2 2 2 3 7 6 5 6 6 6 7 7 6 6 12 15 15 15 15 16 16 16 16 16 16 15 15 15 15 15 14
2 2 2 1 1 1 2 2 2 2 2 4 6 5 5 5 6 6 6 5 6 9 12 13 14 16 16 16 16 16 15 15 15 15 14 15 15 14
2 2 2 2 2 2 2 2 2 2 3 4 5 5 5 5 4 6 7 5 6 7 8 10 13 15 16 16 16 15 15 15 15 15 15 14 14 13
1 1 2 2 3 2 2 2 2 2 3 3 5 5 5 5 5 5 7 7 6 4 5 6 7 6 8 12 13 15 15 15 15 15 15 14 14 13
1 1 1 2 2 4 4 4 4 3 3 3 4 5 7 6 5 6 6 7 6 4 6 8 5 6 6 5 12 15 15 15 15 15 15 14 12 11
2 1 1 1 2 2 3 5 5 6 6 4 5 6 6 6 6 6 6 6 7 6 6 7 5 6 6 8 15 15 14 15 15 15 14 13 12 11
2 2 1 1 2 2 2 3 3 3 4 3 4 5 5 5 5 6 6 6 6 4 3 5 5 5 7 6 12 13 14 14 14 14 14 13 12 11
1 1 1 1 3 4 2 2 4 4 5 6 6 7 9 10 8 4 4 5 6 5 2 3 4 6 6 5 6 12 14 15 15 15 14 13 12 11
1 1 2 2 3 4 2 2 4 4 4 4 5 6 5 6 8 4 3 4 5 4 3 3 4 5 5 3 3 5 7 11 14 14 14 13 13 7
1 1 1 3 4 4 4 2 4 5 3 3 3 4 4 4 4 4 3 3 4 4 4 4 4 3 4 5 4 4 5 5 6 7 11 13 13 9
1 1 1 2 3 4 3 4 5 4 2 2 3 3 4 4 4 5 5 4 4 6 6 5 4 4 5 5 6 5 5 5 4 5 5 10 10 11
0 1 1 2 3 3 3 4 3 2 2 2 3 3 3 4 5 5 5 4 5 5 5 4 4 4 4 4 5 5 6 5 4 5 5 5 5 5
1 1 2 3 3 3 3 3 2 2 2 2 3 3 4 4 4 4 4 5 4 5 4 4 4 4 3 4 4 5 5 5 6 6 5 5 4 4
1 1 1 1 2 2 2 2 2 2 2 2 3 3 4 4 4 4 3 4 3 5 5 5 4 3 3 4 4 4 4 4 5 6 5 6 5 4
2 1 0 1 1 1 1 2 2 2 3 3 3 3 4 4 4 4 4 3 4 4 4 5 5 5 3 2 3 4 4 4 5 5 4 5 6 5
2 1 0 0 1 1 1 2 2 3 3 3 3 3 4 4 4 4 4 4 4 4 4 4 4 4 5 6 5 3 3 5 5 4 4 3 5 6
1 0 0 1 1 1 1 2 2 2 3 3 3 3 3 3 4 4 4 4 4 5 5 4 4 4 3 5 5 5 6 4 4 4 5 4 4 7
0 0 0 1 1 1 2 2 2 2 3 3 3 3 3 3 3 4 4 6 5 4 5 5 5 8 4 3 3 4 4 6 5 4 4 4 4 4
0 1 1 1 1 1 2 2 2 2 3 2 3 3 3 3 4 4 4 4 4 4 5 5 5 4 3 3 4 5 6 6 6 7 5 3 2 3
1 1 1 1 1 1 1 2 2 2 2 2 3 3 3 3 3 3 4 4 4 4 4 5 4 3 3 3 3 4 5 6 5 5 5 6 6 7
Wind_Direction
162 165 177 229 242 246 220 203 226 292 299 287 301 303 315 314 319 322 319 324 329 330 330 330 329 328 327 327 327 325 323 324 324 323 320 318 315 313
165 160 195 237 260 265 248 250 227 245 280 285 287 298 310 317 321 321 314 326 327 327 328 329 330 332 331 329 328 329 328 328 327 326 323 321 316 312
178 182 220 243 255 266 266 267 262 248 278 292 292 301 306 309 315 314 313 313 316 323 326 328 330 330 331 331 330 329 329 329 327 325 325 324 323 318
199 196 231 258 266 271 272 269 270 262 268 292 304 308 306 307 310 314 317 319 314 320 325 329 332 333 331 330 328 327 326 328 329 329 329 327 325 322
191 198 219 221 268 282 285 279 286 298 287 289 299 305 305 309 316 313 312 311 314 319 324 331 334 333 331 329 328 328 330 332 331 332 330 328 327 324
197 203 211 219 235 250 274 277 294 308 308 300 300 305 306 309 316 322 321 322 318 319 323 328 326 327 329 330 331 333 333 333 332 331 329 328 328 326
209 219 226 254 268 270 282 281 291 299 304 306 305 309 312 324 323 319 315 318 313 317 319 318 318 318 323 326 330 331 332 332 331 329 328 327 327 326
212 251 263 267 285 305 310 307 300 294 297 297 301 303 307 309 311 311 314 321 319 327 323 312 316 312 313 313 325 330 332 333 333 332 331 330 329 329
204 225 280 294 312 294 305 317 317 313 301 290 290 293 298 301 307 308 311 311 301 306 313 303 313 307 309 315 324 327 331 334 335 335 335 335 335 334
212 217 232 266 284 299 301 309 305 304 300 296 277 286 295 297 292 295 300 302 292 296 307 296 308 305 307 307 319 325 331 335 338 338 337 338 338 338
223 227 236 253 283 309 311 304 310 313 324 323 318 318 322 325 324 320 317 316 311 309 314 297 302 305 300 294 312 328 334 336 336 338 339 340 342 339
248 255 269 287 291 306 301 292 304 311 317 322 330 332 328 325 331 324 305 304 307 306 311 313 304 319 313 300 307 318 322 328 335 338 340 342 341 338
239 273 277 300 304 309 318 297 300 316 318 325 327 327 326 325 322 316 301 290 294 291 301 312 303 306 292 300 306 307 316 320 327 329 333 338 340 339
230 258 284 316 328 328 329 326 332 343 344 338 332 328 327 324 317 312 304 294 277 276 287 295 289 297 302 301 305 313 318 319 325 323 325 333 337 337
205 260 335 356 354 349 350 351 357 357 340 334 325 318 311 305 308 310 312 306 300 294 293 286 284 288 288 292 302 308 315 317 324 327 328 330 327 328
70 70 39 34 13 358 2 4 355 329 326 314 311 311 312 316 316 318 320 325 325 320 313 307 301 292 291 294 292 303 312 312 323 327 323 322 328 330
87 65 45 25 13 6 5 359 349 344 343 329 319 321 323 324 321 324 324 327 324 321 327 330 324 305 279 279 298 305 311 309 312 321 327 331 332 336
87 101 54 2 336 334 343 341 337 335 331 326 323 322 321 321 326 332 332 329 327 322 322 324 330 331 329 309 282 295 312 311 316 323 327 327 327 334
84 112 157 271 307 318 317 315 316 319 321 322 322 320 318 321 328 333 336 334 328 322 320 322 333 342 342 332 317 315 317 317 322 327 328 317 312 316
76 163 243 276 296 303 304 310 314 320 322 319 319 319 320 324 328 330 330 327 325 324 325 330 336 336 325 309 306 309 320 316 319 322 322 314 302 305
339 299 304 302 295 296 297 302 306 306 310 313 317 322 322 324 325 324 325 328 329 327 329 327 316 317 303 305 314 319 323 327 320 309 317 321 324 336
275 288 301 303 300 298 296 298 302 304 309 311 317 318 318 318 319 321 325 325 327 326 319 315 319 328 342 343 328 321 326 336 338 333 325 317 317 333
267 284 293 290 293 295 299 297 294 296 300 304 309 312 314 315 316 317 321 320 322 328 329 327 333 340 338 329 324 322 329 336 342 349 347 341 327 309